Regional Weather Roundup
Issued by NWS San Diego, CA

Home | Current Version | Previous Version | Text Only | Print | Product List | Glossary On
Versions: 1 2 3 4 5 6 7 8 9 10 11 12 13 14 15 16 17 18 19 20 21 22 23 24 25 26 27 28 29 30 31 32 33 34 35 36 37 38 39 40 41 42 43 44 45 46 47 48 49 50
000
ASUS46 KSGX 310911
RWRSGX

SAN DIEGO HOURLY WEATHER ROUNDUP
NATIONAL WEATHER SERVICE SAN DIEGO CA
200 AM PDT FRI JUL 31 2015

NOTE: "FAIR" INDICATES FEW OR NO CLOUDS BELOW 12,000 FEET WITH NO
SIGNIFICANT WEATHER AND/OR OBSTRUCTIONS TO VISIBILITY.

CAZ042-043-060-061-PZZ750-775-311000-

GREATER SAN DIEGO AREA

CITY           SKY/WX    TMP DP  RH WIND       PRES   REMARKS
LINDBERGH FLD  CLOUDY    71  64  78 NW3       30.03F
POINT LOMA       N/A     67  63  87 E1          N/A
NATIONAL CITY    N/A     71  67  88 CALM      30.02F
CHULA VISTA      N/A     70  67  89 CALM      29.96S
IMPERIAL BEACH CLOUDY   N/A N/A N/A CALM      30.02F
BROWN FIELD    CLOUDY    68  65  90 CALM      30.03F
MIRAMAR MCAS   CLOUDY    73  64  73 CALM      30.03F
MONTGOMERY FLD CLOUDY    70  64  81 CALM      30.03F

$$

NORTH SAN DIEGO COUNTY

CITY           SKY/WX    TMP DP  RH WIND       PRES   REMARKS
CAMP PENDLETON CLOUDY    70  64  81 S5        30.02S
OCEANSIDE AP   CLOUDY    71  65  81 SW3       30.01F
OCEANSIDE HBR    N/A     70  67  89 SW3       30.04F
VISTA            N/A     69  64  84 CALM      30.00S
CARLSBAD       CLOUDY    70  66  87 SW3       30.02S
DEL MAR          N/A     69  66  90 CALM      30.04F
FALLBROOK        N/A     68  68 100 CALM      30.03S
ESCONDIDO        N/A     69  65  88 CALM      30.03F
POWAY            N/A     69  64  86 CALM      30.02F

$$

EAST SAN DIEGO COUNTY

CITY           SKY/WX    TMP DP  RH WIND       PRES   REMARKS
RAMONA         PTCLDY    64  62  93 W3        30.05S
SANTEE LAKES     N/A     69  65  88 CALM      30.01S
LA MESA          N/A     68  65  89 CALM      29.95S
JAMUL            N/A     66  64  93 CALM      30.00F
DESCANSO N       N/A     65  60  85 E5        29.84S
CAMPO            N/A     66  59  78 E5        30.06F

$$

ORANGE COUNTY AND THE LOS ANGELES BASIN

CITY           SKY/WX    TMP DP  RH WIND       PRES   REMARKS
JOHN WAYNE AP  CLOUDY    70  65  84 S5        30.01F
LAKE FOREST FR   N/A     68  63  84 CALM      29.90F
SANTA ANA        N/A     72  66  80 CALM      29.96F
HUNTINGTON BCH   N/A     69  67  93 CALM      30.03F
LOS ALAMITOS   FAIR      69  67  94 S5        30.01F
FULLERTON      CLEAR     71  65  81 S3        30.00F
LONG BEACH     CLEAR     72  65  78 S6        30.01S
L.A. AP        PTCLDY    69  66  90 SW6       30.01F
L.A. DOWNTOWN  CLEAR     70  64  81 CALM      30.00F

$$

THE INLAND EMPIRE

CITY           SKY/WX    TMP DP  RH WIND       PRES   REMARKS
CORONA         CLEAR     69  66  90 W5        30.01F
CHINO          CLEAR     72  65  78 CALM      30.02F
ONTARIO        CLEAR     71  64  78 W5        30.02S
RIVERSIDE AP   CLEAR     73  65  75 CALM      30.02F
MORENO VALLEY    N/A     71  69  93 SE2       30.01F
MARCH ARB      CLEAR     72  66  81 NW5       30.04F
HORSETHIEF CYN   N/A     71  63  76 CALM      30.01F
PERRIS           N/A     73  66  79 SW2       30.04F
MENIFEE          N/A     72  66  82 CALM      30.07F
HEMET EAST       N/A     72  63  73 CALM      30.02S
FRENCH VALLEY  FAIR      68  63  83 S3        30.04F
TEMECULA         N/A     68  65  89 CALM      30.00F

$$

SAN BERNARDINO AND RIVERSIDE COUNTY MOUNTAINS

CITY           SKY/WX    TMP DP  RH WIND       PRES   REMARKS
BIG BEAR AP    CLEAR     52  50  93 CALM      30.37F
ANGELUS OAKS     N/A     58  56  92 CALM      29.90F
PINE COVE        N/A     63  56  77 CALM      29.96F

$$

SOUTHERN DESERT INCLUDING THE COACHELLA VALLEY

CITY           SKY/WX    TMP DP  RH WIND       PRES   REMARKS
PALM SPRINGS   CLEAR     88  66  48 CALM      29.92F
THOUSAND PALMS   N/A     88  65  45 SW12      29.87F
THERMAL        CLEAR     88  66  48 NW6       29.84F
IMPERIAL AP    CLEAR     85  67  54 W7        29.85F
EL CENTRO NAS  CLEAR     86  68  54 W6        29.87F
YUMA AZ        PTCLDY    92  65  40 CALM      29.86F

$$

UPPER DESERT

CITY           SKY/WX    TMP DP  RH WIND       PRES   REMARKS
VICTORVILLE AP PTCLDY    75  64  69 CALM      30.09F
HESPERIA         N/A     72  64  75 CALM      30.04S
APPLE VALLEY     N/A     74  62  66 CALM      30.12S
PALMDALE       CLEAR     75  63  66 SW3       30.08S
LANCASTER      PTCLDY    77  61  57 W12       30.07S
EDWARDS AFB    PTCLDY    78  59  51 NW3       30.04F
DAGGETT        PTCLDY    81  63  54 S3        30.01F
29 PALMS N     CLEAR     78  64  61 W8        30.08F
NEEDLES        MOCLDY    84  66  54 SW9       29.92F

$$

REGIONAL REPORTS

CITY           SKY/WX    TMP DP  RH WIND       PRES   REMARKS
SANTA BARBARA  CLOUDY    68  63  84 SE3       30.00F
SANDBERG       CLEAR     71  60  68 S9          N/A
LAS VEGAS NV   CLOUDY    91  51  25 SE5       29.96R
PHOENIX AZ     CLOUDY    95  59  30 W9        29.91S
TIJUANA        CLOUDY    68  61  77 CALM      30.05F
ENSENADA NW      N/A     70  32  24 W2        29.99F

$$

OFFSHORE ISLANDS

CITY           SKY/WX    TMP DP  RH WIND       PRES   REMARKS
CATALINA ARPT  CLOUDY    63  62  97 CALM      30.05F FOG
SAN NICOLAS IS CLEAR    N/A N/A N/A W5        30.02F

$$

MARINE AND OFFSHORE BUOY REPORTS

STATION/POSITION SKY/WX   TEMP    WIND        PRES    SWELL
                          AIR SEA DIR/SP/G            HT/PER/DIR
                          (F)     (DEG/KT/KT) (MB)    (FT/S/D)
TANNER BANKS               66 68  290/ 10/ 12 1016.9F   5/180/15
S CLEMENTE BASIN           66 70  280/  6/  8 1016.6F   3/210/15
SAN NICOLAS IS.               66                N/A     3/210/15
SO. S. ROSA ISLA           65 68  320/ 10/ 12 1015.6F   5/ 9
W. S. BARBARA CH           64 65  330/ 12/ 14 1015.3F   3/210/14
M. S. BARBARA CH           65 68  230/  8/ 10 1016.5F
S. MONICA BASIN            70 74  160/  4/  6 1016.1F   3/220/14
S PEDRO CHANNEL               71                N/A     2/260/15
DANA POINT                    72                N/A     3/210/14
OCEANSIDE OFFSHR              73                N/A     3/210/17
TORREY PINES OTR              73                N/A     3/220/14
LA JOLLA 1                 70 72   10/  3/  4 1016.8R
MISSION BAY BUOY              73                N/A     3/210/15
SAN DIEGO BAY                 74              1017.3F
POINT LOMA SOUTH              71                N/A     3/220/14

$$



USA.gov is the U.S. government's official web portal to all federal, state and local government web resources and services.